Showing default

TIANHUI 5C, 60211

Orbit data source: Space-Track

TIANHUI 5C, 60211 is a payload satellite owned by G. Cehui dili (CN) in SSO that was launched on Thu, 04 Jul 2024 UTC via a CHANG ZHENG 6A launch vehicle from the Taiyaun Space Center, China (TSC). Payload-class satellites include a variety of spacecraft equipped with specific instruments for various scientific and technological missions. These include communications satellites like Starlink; space stations such as the ISS; scientific satellites like the Hubble; Earth observation satellites from companies like Planet Labs, Umbra, and HawkEye 360; GPS; miniature CubeSats for education and research; and military/defense satellites.

Loading next visibility...
Identifier
60211, 2024-126A
Orbit
SSO
Last TLE update
1 day ago
Origin
Manufacturer
DFH
Mission
Operational spacecraft
Bus & Motor
CAST-2000?, Unknown motor
Mass
~1,000 kg wet, ~1,000 kg dry
Launch date (UTC)
2024-07-04 (10 months ago)
Launch vehicle
CHANG ZHENG 6A
Launch site
Taiyaun Space Center, China (TSC)
Object type
Payload
Rocket body
Debris
Shape & HBR
Unknown
Radar Cross Section
Large (>1 m²)

Expand to show TLE details & history

TLE from 1 day ago
0 TIANHUI 5C
1 60211U 24126A   25108.52547569  .00000937  00000-0  10918-3 0  9995
2 60211  97.8212 117.1646 0001548  91.0902 269.0492 14.87578019 42756
Epoch: 2025-04-18T12:36Z
Definitive object data (Epoch: 2025-04-18T12:36:41.099Z)
Latitude
Longitude
81.11158°
Altitude
608.558 km
Speed
7.555 km/s
True Right ascension
07h 48m 39s
True Declination
0° 00' 00"
Sunlit
Object was in daylight at TLE epoch
Visualization TLE readout
Latitude
66.34207°
Longitude
64.27986°
Altitude
615.946 km
Speed
7.558 km/s
Apparent Right ascension
13h 51m 38s
Apparent Declination
35° 26' 29"
Sunlit
Object is in daylight
Visualization observer readout
Local Sidereal Time
04:04:26
Azimuth
26.825° NE
Elevation
-8.672°
Doppler factor
1
Orbital elements
Apogee altitude
603.613 km
Perigee altitude
601.452 km
Semi-major axis
6,980.67 km
Eccentricity
0.0001548
Inclination
97.8212°
RAAN
117.1646°
Arg. of periapsis
91.0902°
True anomaly
269.03146°
Mean anomaly
269.0492°
Eccentric anomaly
269.04033°
Mean motion
3.72132 °/min
BSTAR
0.00010918
Orbital period
96.74 mins
Loading maneuver chart data...
Loading SW <> Apogee altitude chart data...
Loading historical data...
Loading historical data...
Loading historical data...
Loading historical data...
Loading historical data...
Loading historical data...
Loading historical data...
Other satellites on launch #126 in the year 2024 (2024-07-04 UTC)

TIANHUI 5C Visibility forecast

Observer location: undefined°, undefined°

Span
Click to sort rows by Start time (UTC) header in descending order
Start Az.
Max El. time (UTC)
Max El. Az.
Max El.
End time (UTC)
End Az.
7 mins2025-04-20 00:15:02.045Z151.109° SSE2025-04-20 00:19:02.045Z50.513° ENE39.318°2025-04-20 00:22:02.045Z358.467° N
7 mins2025-04-20 13:37:02.045Z2.819° NNE2025-04-20 13:40:02.045Z271.841° WNW42.149°2025-04-20 13:44:02.045Z203.622° SW
|